Location: Unspecified
(0.0000°N, 0.0000°E)
Time: 10:11:12
(UTC+00:00)

Vanguard 2 - Pass Details

Date: 22 October 2021
Orbit: 554 x 2936 km, 32.9° (Epoch: 06 December)

Event Time Altitude Azimuth Distance (km) Brightness Sun altitude
Rises 09:37:58 0° 319° (NW) 2,707 10.1 56.6°
Reaches altitude 10° 09:40:10 10° 327° (NNW) 1,831 9.3 57.2°
Maximum altitude 09:43:55 38° 37° (NE) 935 8.7 58.0°
Drops below altitude 10° 09:48:36 10° 106° (ESE) 2,302 10.7 59.1°
Sets 09:51:41 0° 114° (ESE) 3,526 11.4 59.8°
